GFSFLT1_850_rhum_306.txt.gz
RH
28 30 36 38 42 48 53 53 45 45 44 40 30 23 25 37 42 34 37 39 41 52 60 62 66 72 84 100 100 90 100 96
28 34 39 40 45 50 55 51 46 46 42 32 24 21 33 35 40 38 41 40 46 56 59 64 69 75 79 88 100 100 96 88
29 38 43 43 47 53 55 50 47 46 37 29 24 30 33 39 43 43 44 40 44 55 62 66 71 76 78 82 100 99 96 99
31 39 43 46 51 55 52 50 48 41 34 31 23 30 30 28 38 41 49 42 34 53 62 70 77 83 86 96 100 100 96 98
29 37 43 49 54 55 51 51 47 36 35 25 25 25 29 43 58 62 48 38 27 49 61 69 78 86 90 98 100 97 97 96
28 35 44 52 56 52 51 52 40 35 36 25 26 27 34 42 57 50 35 28 22 37 58 67 78 84 90 99 100 96 96 100
30 40 51 54 53 51 54 49 38 37 34 27 23 26 33 41 49 40 34 26 17 24 55 68 82 86 93 98 96 95 98 97
32 47 54 53 50 53 54 43 36 37 31 22 24 27 43 51 58 52 42 26 12 18 63 73 82 87 94 97 98 98 96 96
36 47 50 50 51 56 48 39 36 36 24 23 24 32 48 52 52 43 32 22 13 20 62 74 77 78 83 98 93 96 96 96
40 49 48 49 56 53 44 38 37 33 22 23 26 35 46 46 44 39 28 17 11 22 57 56 60 70 87 95 92 96 96 96
47 49 49 56 56 49 41 38 39 26 23 24 27 37 48 44 41 37 26 18 12 20 42 40 51 73 87 93 95 96 96 96
49 50 55 57 54 48 42 40 38 23 23 24 28 40 44 42 42 39 28 19 14 15 23 33 47 72 87 94 97 97 95 96
48 54 58 56 52 49 43 43 34 20 22 24 31 39 41 43 41 36 26 18 16 16 17 25 39 64 86 97 96 96 96 96
55 58 57 55 52 49 46 44 26 20 22 25 33 36 38 40 37 32 21 18 18 17 15 16 30 53 79 92 96 96 96 96
58 58 56 55 53 51 45 37 21 22 24 27 28 33 36 37 34 27 20 18 18 18 15 14 23 42 65 84 96 96 96 97
57 54 56 55 54 52 45 31 21 25 26 21 26 34 32 32 27 24 20 19 19 18 14 12 13 30 54 77 96 96 96 97
53 55 55 54 54 51 41 25 23 26 21 20 26 27 25 26 22 20 19 20 19 16 15 12 11 22 34 67 85 96 97 96
49 52 52 52 53 49 34 23 22 23 20 19 23 25 22 22 18 17 18 20 19 17 16 14 12 15 19 52 69 90 97 97
49 50 52 53 53 48 32 22 23 22 19 18 20 21 18 19 15 14 16 18 18 17 17 15 13 12 13 30 50 66 94 97

GFSFLT1_850_rhum_309.txt.gz
RH
28 32 38 44 50 50 52 54 49 48 48 36 26 25 30 34 30 28 30 33 32 37 48 55 62 89 100 100 100 100 100 100
30 32 40 46 49 51 53 53 50 51 40 29 22 25 34 32 31 30 29 32 28 40 53 63 77 98 90 100 100 100 100 100
30 33 41 47 48 51 55 52 51 47 32 25 22 28 34 30 34 31 32 28 22 36 57 78 93 93 90 97 100 99 100 100
29 36 42 47 49 52 56 52 52 40 30 23 23 28 33 37 32 30 28 20 17 32 64 78 89 93 87 88 100 99 97 100
29 35 42 48 50 55 53 52 50 34 26 21 26 31 37 37 37 27 16 18 17 27 64 73 88 97 86 94 100 100 97 100
28 36 44 49 52 56 52 54 43 29 23 25 31 31 39 35 27 14 14 15 14 25 62 72 79 84 85 91 100 100 98 98
31 39 50 50 55 53 53 52 35 26 23 26 32 40 35 25 18 19 17 15 11 29 57 59 62 77 81 93 100 99 100 97
29 44 52 51 54 51 55 43 29 27 22 31 34 35 27 26 31 31 28 17 13 33 53 46 55 72 87 100 100 100 98 98
32 46 49 52 50 55 50 34 32 23 28 32 29 25 29 34 37 35 28 20 18 28 28 41 52 77 94 97 96 96 96 96
37 49 50 51 53 55 43 33 28 25 30 27 24 25 32 36 37 33 25 19 16 15 20 34 53 80 96 95 97 96 96 96
47 51 52 51 56 51 38 30 27 28 24 26 22 28 35 35 37 29 20 19 16 14 14 28 53 83 95 97 96 96 96 96
52 52 51 56 55 47 36 32 28 23 25 26 24 30 32 36 35 25 19 19 18 14 13 23 50 79 98 98 96 96 95 96
52 50 54 57 52 47 35 36 24 24 27 24 25 28 30 33 28 21 19 19 18 13 12 18 44 73 98 97 96 96 96 96
51 54 57 56 52 46 38 31 23 25 27 24 25 26 28 28 23 20 19 18 16 14 11 14 40 84 97 97 96 96 96 97
52 57 57 56 52 48 38 28 22 28 26 22 23 26 26 22 19 20 19 18 16 14 12 13 38 66 95 96 96 96 96 97
55 56 58 54 53 50 36 25 25 27 22 20 22 26 22 17 17 18 19 18 16 14 12 10 26 48 89 96 96 96 97 97
56 56 56 54 54 48 34 26 23 23 20 20 24 23 17 13 14 16 16 16 16 14 13 12 14 32 69 97 97 96 96 96
52 53 53 53 54 46 31 23 22 21 20 20 18 18 14 12 12 13 12 13 13 14 14 13 13 18 44 96 97 97 97 97
50 50 53 55 54 44 28 21 19 20 18 17 17 14 12 10 10 10 10 10 10 11 13 14 13 11 18 65 97 98 98 98

GFSFLT1_850_rhum_312.txt.gz
RH
29 36 40 48 57 63 65 63 55 54 71 66 64 64 67 70 66 69 78 73 73 79 84 93 99 100 100 100 100 100 100 100
31 40 50 56 61 60 64 68 57 66 58 53 48 51 59 60 67 79 82 77 76 67 86 90 97 100 100 98 100 99 100 100
34 47 56 60 62 64 58 65 64 60 53 56 62 63 62 72 70 75 79 81 83 67 92 93 98 100 100 100 100 99 100 100
34 48 57 60 62 57 61 65 62 48 27 55 58 56 52 53 61 63 71 81 82 79 83 97 100 100 100 100 100 99 97 100
33 46 55 57 64 63 61 59 60 51 30 58 68 59 58 64 63 63 68 72 74 77 84 96 100 100 99 99 99 96 95 98
32 46 54 56 64 60 62 54 62 44 46 36 60 66 64 59 59 61 59 61 64 65 88 95 94 96 100 99 99 96 95 95
35 50 55 58 62 63 58 68 64 58 44 64 76 80 75 66 63 57 57 57 53 62 80 90 93 97 100 100 98 96 95 95
43 53 54 62 63 63 68 64 60 50 65 68 78 79 71 66 67 65 66 58 56 63 80 87 92 100 100 98 97 96 95 95
46 51 57 62 67 71 69 59 57 59 60 72 76 76 67 66 72 75 66 60 62 74 84 88 96 100 98 98 96 95 95 95
48 56 61 64 70 74 64 59 58 54 64 72 70 71 77 77 79 78 67 66 69 78 86 90 99 100 98 96 95 95 95 96
54 58 63 67 75 58 43 42 52 39 71 69 67 72 75 78 79 77 65 70 76 81 84 90 100 98 96 95 95 95 97 97
54 59 64 72 74 71 35 64 45 68 68 68 69 71 75 76 78 70 52 72 74 80 86 92 99 97 97 95 97 96 96 96
55 60 67 71 70 64 67 38 66 63 68 70 71 73 74 74 71 54 49 62 74 75 84 91 98 98 96 98 96 96 96 96
59 64 66 70 69 66 62 61 62 60 62 66 69 71 70 68 62 47 43 50 71 69 79 88 100 98 97 96 96 96 96 96
59 64 67 68 69 65 60 53 59 57 57 64 67 63 56 51 47 36 33 55 61 65 77 81 96 97 96 95 96 96 96 96
59 64 67 68 70 64 56 53 56 49 57 60 61 60 49 35 32 44 38 48 60 63 71 70 82 96 96 96 95 96 97 97
57 62 65 67 68 59 53 55 35 50 59 52 46 47 32 22 38 50 44 47 52 51 61 66 67 97 96 96 96 96 97 98
56 60 62 65 65 54 53 45 38 55 54 47 42 37 20 24 45 34 41 49 50 46 54 60 52 94 98 96 96 96 96 98
56 59 62 65 61 56 28 40 34 42 46 34 23 26 12 27 30 34 41 46 47 44 49 34 39 45 98 96 97 97 97 100

GFSFLT1_850_rhum_315.txt.gz
RH
22 27 30 34 44 55 59 67 76 80 70 55 46 46 47 53 53 55 71 73 76 78 65 73 83 78 80 87 98 100 100 99
22 28 33 39 50 56 59 71 78 72 56 50 46 44 47 51 57 63 70 72 77 78 66 73 79 78 88 100 97 100 100 100
23 32 39 45 54 57 62 67 70 67 53 51 53 52 52 52 52 58 63 68 76 75 76 77 81 83 91 99 100 100 100 100
26 36 44 50 55 62 62 65 69 70 50 44 51 52 45 46 52 53 55 65 68 71 75 77 84 87 92 94 98 99 98 100
25 36 46 49 57 62 64 68 67 60 62 52 61 51 50 54 52 52 58 57 62 62 64 75 82 89 93 99 98 97 96 97
25 35 44 50 58 65 70 70 66 63 61 66 62 63 62 58 56 59 55 56 57 55 63 75 79 81 90 97 99 98 94 94
27 38 48 48 55 65 72 64 58 58 61 64 69 72 70 63 60 59 58 58 55 55 66 76 80 83 95 92 97 95 94 94
35 44 45 51 61 69 67 56 49 54 57 63 67 68 67 63 64 65 69 59 57 61 73 78 79 88 99 98 92 94 94 94
38 43 46 54 65 67 62 50 47 49 57 64 65 67 64 65 70 72 66 63 65 72 79 81 84 96 95 96 96 95 95 96
41 46 52 59 66 73 66 53 49 54 61 63 61 66 70 72 74 73 66 69 72 73 79 82 94 97 96 94 96 98 97 96
44 50 56 64 73 74 66 56 55 59 64 63 63 67 69 72 71 69 69 76 75 75 76 88 98 94 95 96 97 95 96 96
48 53 60 68 70 68 62 55 56 60 63 66 68 68 67 68 65 65 70 73 72 72 75 93 95 95 96 97 96 96 98 97
49 55 61 66 62 58 58 61 59 60 59 64 67 67 66 63 61 66 68 69 69 68 81 96 95 96 97 97 96 96 98 99
52 56 59 61 60 53 50 54 55 53 54 58 64 67 62 59 61 62 62 66 65 65 77 94 96 98 98 97 97 97 96 97
52 56 60 60 58 50 49 54 54 50 51 53 62 63 56 56 60 59 58 62 60 60 84 90 96 97 96 95 96 95 97 97
51 56 60 60 56 48 47 50 51 51 51 51 55 54 46 52 54 55 54 57 56 61 60 96 96 96 95 94 97 97 98 98
50 55 57 57 51 43 47 50 51 49 50 49 50 45 41 46 48 51 51 51 51 40 45 92 96 97 94 98 96 97 99 100
49 52 54 56 48 46 46 48 49 48 46 45 44 38 39 43 45 49 51 46 45 36 54 69 96 97 96 96 97 98 100 100
48 51 55 56 48 45 45 44 46 45 44 43 42 37 38 43 46 50 49 46 43 43 47 52 97 97 96 98 98 100 99 100